Regional Weather Roundup
Issued by NWS

Home | Current Version | Previous Version | Text Only | Print | Product List | Glossary On
Versions: 1 2 3 4 5 6 7 8 9 10 11 12 13 14 15 16 17 18 19 20 21 22 23 24 25 26 27 28 29 30 31 32 33 34 35 36 37 38 39 40 41 42 43 44 45 46 47 48 49 50
000
ASUS43 KMKX 230100
RWRWI

WISCONSIN REGIONAL WEATHER ROUNDUP
NATIONAL WEATHER SERVICE MILWAUKEE/SULLIVAN WI
800 PM CDT WED OCT 22 2014

NOTE: "FAIR" INDICATES FEW OR NO CLOUDS BELOW 12,000 FEET WITH NO
SIGNIFICANT WEATHER AND/OR OBSTRUCTIONS TO VISIBILITY.

WIZ001-002-006>008-014>016-023>028-230200-
NORTHWEST WISCONSIN

CITY           SKY/WX    TMP DP  RH WIND       PRES   REMARKS
SUPERIOR ARPT  CLOUDY    54  37  53 S3        30.05S
ASHLAND        PTCLDY    53  32  44 S7        30.09S
HAYWARD        MOCLDY    53  33  46 S12       30.09S
SIREN          MOCLDY    55  33  43 S9        30.06S
CUMBERLAND     CLOUDY    52  32  46 SE8G17    30.10R
RICE LAKE      CLOUDY    54  35  49 SE12      30.12S
CHETEK         CLOUDY    55  35  46 SE10G21   30.12S
LADYSMITH      PTCLDY    51  33  49 SE8       30.15S
EAU CLAIRE     NOT AVBL
MENOMONIE      RAIN      55  38  54 SE8       30.12R
NEW RICHMOND   MOCLDY    54  37  52 S13G21    30.07F
OSCEOLA        MOCLDY    55  39  55 SE8       30.09S
$$

WIZ003>005-009-010-017-018-230200-
NORTH CENTRAL WISCONSIN

CITY           SKY/WX    TMP DP  RH WIND       PRES   REMARKS
MANITOWISH WTR CLEAR     46  30  53 S9        30.15S
ARBOR VITAE    CLEAR     45  30  56 SE6       30.16F
WOODRUFF       CLEAR     45  30  56 SE6       30.16F
RHINELANDER    CLEAR     42  31  64 SE7       30.19S
EAGLE RIVER    CLEAR     43  28  55 S5        30.18S
LAND O LAKES   CLEAR     44  29  56 S6        30.18S
PHILLIPS       MOCLDY    48  32  54 S7        30.14F
TOMAHAWK       CLEAR     44  31  62 CALM      30.18F
MEDFORD        CLEAR     45  35  66 S6        30.17S
MERRILL        CLEAR     45  33  62 SE6       30.19S
$$

WIZ029-030-035-036-043>047-230200-
CENTRAL WISCONSIN

CITY           SKY/WX    TMP DP  RH WIND       PRES   REMARKS
WAUSAU         CLEAR     46  34  62 SE10      30.19S
MOSINEE        CLEAR     45  36  70 SE7       30.21S
MARSHFIELD     CLEAR     45  35  68 SE6       30.18S
STEVENS POINT  CLEAR     43  33  66 SE5       30.21S
WAUPACA        CLEAR     44  38  80 SE3       30.23S
WAUTOMA        NOT AVBL
WISC RAPIDS    CLEAR     45  35  68 SE6       30.22R
CAMP DOUGLAS   NOT AVBL
$$

WIZ011>013-019>022-031-037>040-048>050-230200-
NORTHEAST WISCONSIN

CITY           SKY/WX    TMP DP  RH WIND       PRES   REMARKS
ANTIGO         CLEAR     41  34  76 SE8       30.21F
SHAWANO        CLEAR     44  38  80 SE6       30.25R
OCONTO         CLEAR     40  39  97 SE5       30.26F
STURGEON BAY   CLEAR     39  34  81 SE6       30.27F WCI  35
GREEN BAY      CLEAR     41  37  86 SE7       30.26F
MANITOWOC      NOT AVBL
APPLETON       PTCLDY    43  37  81 SE7       30.25S
CLINTONVILLE   CLEAR     43  36  75 SE5       30.24R
OSHKOSH        CLEAR     45  39  79 SE8       30.24S
$$

WIZ032>034-041-042-053>061-230200-
SOUTHWEST WISCONSIN

CITY           SKY/WX    TMP DP  RH WIND       PRES   REMARKS
LA CROSSE      MOCLDY    54  38  54 SE8       30.17R
SPARTA         CLEAR     46  34  61 SE3       30.19S
VIROQUA        CLEAR     49  36  60 SE7       30.18S
BOSCOBEL       CLEAR     43  36  76 CALM      30.21R
PRAIRIE DU CHI PTCLDY    50  37  59 E6        30.19S
PLATTEVILLE    CLEAR     49  35  58 SE6       30.22S
$$

WIZ056-057-062-063-064-067-068-230200-
SOUTH CENTRAL WISCONSIN

CITY           SKY/WX    TMP DP  RH WIND       PRES   REMARKS
REEDSBURG      CLEAR     47  36  64 SE5       30.21S
BARABOO/DELLS  CLEAR     45  36  71 CALM      30.22R
LONE ROCK      NOT AVBL
MINERAL POINT  CLEAR     48  34  57 SE3       30.22R
MADISON        PTCLDY    44  35  70 CALM      30.23S
MIDDLETON      CLEAR     42  36  78 CALM      30.23R
WATERTOWN      CLEAR     44  40  84 E5        30.25R
MONROE         CLEAR     46  34  61 S8        30.22S
JANESVILLE     CLEAR     45  36  70 SE12      30.23S
$$

WIZ051-052-058>065-066-070>072-230200-
SOUTHEAST WISCONSIN

CITY           SKY/WX    TMP DP  RH WIND       PRES   REMARKS
MILWAUKEE      PTCLDY    42  36  79 SE7       30.27S
WAUKESHA       CLEAR     43  37  81 SE7       30.27S
MILWAUKEE/TIMM CLEAR     45  37  76 CALM      30.28S
RACINE         CLEAR     44  37  76 SE6       30.29S
BURLINGTON     CLEAR     41  37  86 CALM      30.26S
KENOSHA        CLEAR     40  36  86 SE5       30.27S
FOND DU LAC    CLEAR     43  38  82 SE9       30.25S
SHEBOYGAN      CLEAR     39  35  86 CALM      30.27F
WEST BEND      CLEAR     41  36  81 CALM      30.26F
JUNEAU         CLEAR     44  39  82 E9        30.26R
$$

LSZ147-162-230200-
LAKE SUPERIOR

STATION/POSITION TIME  TEMP    WIND        PRES    WAVE
                       AIR SEA DIR/SP/G            HT/PER
                 (UTC) (F)     (DEG/KT/KT) (MB)    (FT/S)
W MID LAKE BUOY  2350   50 46  130/ 10/ 12 1019.9F   1/ 3
DEVILS ISLAND    0000   51     120/  5/  6 1019.3S
PORT WING        0000   58     170/  6/ 12 1018.3S
SAXON HARBOR     0000   58     170/  4/ 11 1018.6F
$$

LMZ867-665-643>646-230200-
LAKE MICHIGAN

STATION/POSITION TIME  TEMP    WIND        PRES    WAVE
                       AIR SEA DIR/SP/G            HT/PER
                 (UTC) (F)     (DEG/KT/KT) (MB)    (FT/S)
CHAMBERS ISLAND  0000   42     120/  5/  8 1025.1F
N MID LAKE BUOY  2350   44 51  160/  6/  8 1026.2F   0
NORTHPORT PIER   0000   41     170/  4/  7 1025.4S
SISTER BAY       0013          140/  5/  6   N/A
KEWAUNEE LAKESHO 0000   45     170/  8/ 11 1024.4F
SHEBOYGAN LAKESH 0000   47 50  150/ 11/ 13 1025.9F
PORT WASHINGTON  0000   49     150/  9/ 11 1025.7S
ATWATER BUOY     0000   49     140/ 10/ 14 1026.1S
MILWAUKEE LAKESH 0000   48     130/ 10/ 11   N/A
S MID LAKE BUOY  2350   47 54   80/  4/  6 1026.2F   1
KENOSHA   LAKESH 0000   48     130/  9/ 11 1025.1F
$$

TC  - TEMPERATURE IN CELSIUS
VSB - VISIBILITY IN STATUTE MILES
WCI - WIND CHILL INDEX
HX  - HEAT INDEX




USA.gov is the U.S. government's official web portal to all federal, state and local government web resources and services.